HST 1 20580U 90037B 26106.78009151 .00004117 00000+0 12991-3 0 9997 2 20580 28.4727 140.0386 0002107 177.0231 183.0377 15.30061930779156 POLAR 1 23802U 96013A 26104.87863871 .00000101 00000+0 00000+0 0 9995 2 23802 79.7908 227.7822 6406941 211.2443 86.1091 1.29845766144039 SWAS 1 25560U 98071A 26106.51687419 .00002579 00000+0 16843-3 0 9996 2 25560 69.8979 26.5018 0006796 320.6049 39.4620 15.09190601487962 CXO 1 25867U 99040B 26108.55302551 .00000845 00000+0 00000+0 0 9998 2 25867 55.2416 118.3602 7940395 310.5754 0.2310 0.37809990 17094 XMM-NEWTON 1 25989U 99066A 26107.51489080 .00000123 00000+0 00000+0 0 9998 2 25989 64.7975 283.7611 4695688 66.0082 0.0027 0.50125090 22701 TERRA 1 25994U 99068A 26106.92684186 .00000216 00000+0 53083-4 0 9991 2 25994 97.9517 158.8855 0003546 74.4837 329.1455 14.61053830400666 CLUSTER II-FM7 (SAMBA) 1 26410U 00041A 26107.89154034 .00002775 00000+0 00000+0 0 9997 2 26410 149.5763 40.7788 8981267 257.2151 0.6557 0.44836055 20031 CLUSTER II-FM8 (TANGO) 1 26464U 00045B 26105.37029088 .00002607 00000+0 00000+0 0 9995 2 26464 149.8154 41.2510 8981499 257.5394 0.5870 0.44407628 20010 ODIN 1 26702U 01007A 26106.62324219 .00033615 00000+0 38038-3 0 9991 2 26702 97.3983 144.3167 0003414 61.9944 298.1659 15.62364939379758 TIMED 1 26998U 01055B 26106.45245983 .00000749 00000+0 71842-4 0 9995 2 26998 74.0695 359.3097 0002190 225.7787 134.3218 14.95150175321593 CORIOLIS 1 27640U 03001A 26106.75137998 .00000077 00000+0 56885-4 0 9996 2 27640 98.7151 114.5701 0014625 34.1024 326.1089 14.19927231205503 SORCE 1 27651U 03004A 26106.83247316 .00001899 00000+0 14791-3 0 9998 2 27651 39.9910 251.6376 0017945 328.5335 31.4385 15.03376304262667 MOST 1 27843U 03031D 26106.75469496 .00000041 00000+0 38606-4 0 9997 2 27843 98.7072 115.3336 0010948 72.1687 288.0683 14.21309484181982 SCISAT 1 1 27858U 03036A 26106.90731780 .00000396 00000+0 55374-4 0 9997 2 27858 73.9286 293.0926 0007056 1.6988 358.4211 14.81376289222377 SWIFT 1 28485U 04047A 26106.82177863 .00031791 00000+0 32715-3 0 9990 2 28485 20.5535 296.2176 0002046 154.7743 205.2802 15.62855098177233 HINODE (SOLAR-B) 1 29479U 06041A 26106.79667979 .00000375 00000+0 72948-4 0 9995 2 29479 98.0591 123.8483 0018788 120.7668 239.5390 14.68534114 45867 SHIJIAN-6 02A (SJ-6 02A) 1 29505U 06046A 26106.92840424 .00002732 00000+0 14485-3 0 9993 2 29505 97.6425 147.5488 0003152 22.1359 338.0009 15.16243960 62981 SHIJIAN-6 02B (SJ-6 02B) 1 29506U 06046B 26106.96054669 .00001185 00000+0 97081-4 0 9991 2 29506 97.7125 136.4086 0011335 274.6036 85.3893 15.01181366 61559 FGRST (GLAST) 1 33053U 08029A 26106.73754784 .00002479 00000+0 86996-4 0 9996 2 33053 25.5819 271.0471 0007984 324.3043 35.6961 15.23612756986455 SDO 1 36395U 10005A 26105.43317678 -.00000035 00000+0 00000+0 0 9992 2 36395 34.5208 87.2889 0000634 41.1720 129.3201 1.00273216 59431 CRYOSAT 2 1 36508U 10013A 26106.94938794 .00000057 00000+0 13371-4 0 9995 2 36508 92.0273 262.4436 0002580 95.3359 264.8142 14.51902870849198 X-SAT 1 37389U 11015C 26106.93578523 -.00000099 00000+0 -24844-4 0 9990 2 37389 98.3470 86.8918 0014323 158.0153 202.1645 14.25186871778958 GCOM-W1 (SHIZUKU) 1 38337U 12025A 26106.77144635 .00000286 00000+0 73584-4 0 9992 2 38337 98.1982 48.2724 0001202 91.5748 287.7568 14.57111212740097 NUSTAR 1 38358U 12031A 26107.00002315 .00004696 00000+0 24094-3 0 9997 2 38358 6.0252 132.9028 0009267 278.3222 338.7946 15.08203526 3060 NEOSSAT 1 39089U 13009D 26106.95466558 .00000122 00000+0 57038-4 0 9996 2 39089 98.4164 288.4461 0012142 71.4170 288.8334 14.35804731687953 BRITE-AUSTRIA 1 39091U 13009F 26106.77471872 .00000104 00000+0 50058-4 0 9999 2 39091 98.3981 287.7339 0011289 66.6538 293.5835 14.36516958688236 IRIS 1 39197U 13033A 26106.81444144 .00000697 00000+0 86243-4 0 9992 2 39197 97.9375 306.2742 0024990 156.8644 203.3702 14.85756035691268 HISAKI (SPRINT-A) 1 39253U 13049A 26106.85254738 .00000140 00000+0 98055-4 0 9991 2 39253 29.7190 171.8375 0136582 239.6584 119.0417 13.55536519623092 CASSIOPE 1 39265U 13055A 26106.92708890 .00018067 -43759-6 21230-3 0 9995 2 39265 80.9140 140.8689 0304237 268.0459 88.5910 15.21361846658342 STSAT-3 1 39422U 13066G 26106.91230185 .00001165 00000+0 92430-4 0 9994 2 39422 97.6176 77.8372 0008054 229.9666 130.0853 15.02401567675008 SWARM B 1 39451U 13067A 26106.98016211 .00002229 00000+0 79892-4 0 9995 2 39451 87.7491 0.8960 0002400 80.5923 279.5598 15.28190375673895 SWARM A 1 39452U 13067B 26106.89798944 .00007781 00000+0 13981-3 0 9990 2 39452 87.3297 78.9834 0003703 92.1629 268.0055 15.49665544696750 SWARM C 1 39453U 13067C 26106.89793221 .00007917 00000+0 14226-3 0 9998 2 39453 87.3298 77.5645 0003708 92.2893 267.8792 15.49664820696713 BRITE-CA1 (TORONTO) 1 40020U 14033L 26106.61428553 .00000667 00000+0 10765-3 0 9996 2 40020 97.9638 236.7150 0080031 113.7564 247.2063 14.72580122633157 OCO 2 1 40059U 14035A 26106.90185887 .00000255 00000+0 66583-4 0 9995 2 40059 98.1980 49.1435 0001631 84.3537 275.7848 14.57138170627128 BRITE-PL2 (HEWELIUSZ) 1 40119U 14049B 26106.77508419 .00001251 00000+0 12162-3 0 9992 2 40119 97.9021 218.3377 0012981 317.2579 42.7630 14.94363655632279 MMS 1 1 40482U 15011A 26107.00002315 -.00000515 00000+0 00000+0 0 9993 2 40482 71.4103 349.6183 8370214 166.1972 176.7884 0.28358164 1321 MMS 2 1 40483U 15011B 26107.00002315 -.00000515 00000+0 00000+0 0 9994 2 40483 71.4105 349.6205 8370971 166.2031 176.7736 0.28358172 1321 MMS 3 1 40484U 15011C 26107.00002315 -.00000515 00000+0 00000+0 0 9995 2 40484 71.4132 349.6251 8370209 166.1974 176.7771 0.28358132 1327 MMS 4 1 40485U 15011D 26107.00002315 -.00000515 00000+0 00000+0 0 9996 2 40485 71.4052 349.6214 8369404 166.2035 176.7683 0.28357157 1320 ASTROSAT 1 40930U 15052A 26106.87027977 .00001362 00000+0 84299-4 0 9998 2 40930 5.9964 236.6841 0008441 241.5392 118.3886 14.82397459570711 DAMPE 1 41173U 15078A 26106.98066977 .00000939 00000+0 34300-4 0 9998 2 41173 97.4576 112.1504 0010488 298.3137 61.7045 15.30630194575185 PISAT 1 41784U 16059B 26106.76968441 .00000667 00000+0 12140-3 0 9994 2 41784 97.8193 109.8662 0030104 44.0688 316.2910 14.68869227510723 HXMT (HUIYAN) 1 42758U 17034A 26106.88282366 .00002909 00000+0 15087-3 0 9992 2 42758 43.0131 164.2520 0030472 117.4012 242.9941 15.17937080488341 FLYING LAPTOP 1 42831U 17042G 26106.91880828 .00001934 00000+0 15646-3 0 9992 2 42831 97.4403 264.9291 0018935 334.7670 25.2627 15.00764282477261 ZHANGHENG 1-01 (CSES-1) 1 43194U 18015C 26106.94743397 .00005282 00000+0 23944-3 0 9998 2 43194 97.6811 271.4086 0019111 107.9010 252.4311 15.21135713455331 SALSAT 1 46495U 20068K 26106.57607044 .00004776 00000+0 17294-3 0 9991 2 46495 97.8862 105.9354 0010819 149.7925 210.3939 15.28882964305944 IXPE 1 49954U 21121A 26107.00002315 .00009036 00000+0 48908-3 0 9994 2 49954 0.2292 59.7724 0006976 233.6569 273.0579 15.09675187 5843